CZ-3B DEB, 40184

Orbit data source: Space-Track

CZ-3B DEB, 40184 is space debris in HEO originally from a launch on Mon, 19 Dec 2011 UTC launched from the Xichang Space Center, China (XSC). Debris objects in space refer to the collection of defunct objects orbiting the Earth. Examples of debris include non-operational satellites, rocket bodies, and fragments generated from explosions, collisions, or faulty payload assembly.

Loading next visibility...
Identifier
40184, 2011-077H
Orbit
HEO
Country
Flag of CNCN / PRC
Related business
Manufacturer
CALT
Mission
Spacecraft
Bus & Motor
Unknown
Mass
Unknown
Launch date (UTC)
2011-12-19 (14 years ago)
Launch vehicle
Unknown
Launch site
Xichang Space Center, China (XSC)
Object type
Payload
Rocket body
Debris
Shape & HBR
Unknown shape, 0.4 m
Radar Cross Section
Medium (>0.1 m² and <1 m²)

Expand to show TLE details & history
Last TLE update: 1 day ago

TLE from 1 day ago
0 CZ-3B DEB
1 40184U 11077H   25339.97656643  .00003977  00000-0  12557-1 0  9998
2 40184  22.1120 258.1998 7520670 337.1684   2.3098  1.92325833 76267
Epoch: 2025-12-05T23:26Z
TLE epoch observation values (Epoch: 2025-12-05T23:26:15.339Z)
Latitude
-0.00163°
Longitude
-168.42034°
Altitude
598.084 km
Speed
9.983 km/s
True Right ascension
17h 12m 37s
True Declination
0° 00' 06"
Sunlit
Object was in daylight at epoch
Visualization orbit readout
Latitude
Unknown
Longitude
Unknown
Altitude
Unknown
Speed
Unknown
Apparent Right ascension
Unknown
Apparent Declination
Unknown
Sunlit
N/A
Visualization observer readout
Local Sidereal Time
00:07:33
Azimuth
Unknown
Elevation
Unknown
Doppler factor
Unknown
Orbital elements
Apogee altitude
41,484.68 km
Perigee altitude
394.876 km
Semi-major axis
27,317.915 km
Eccentricity
0.75207
Inclination
22.112°
RAAN
258.1998°
Arg. of periapsis
337.1684°
True anomaly
24.13676°
Mean anomaly
2.3098°
Eccentric anomaly
9.19659°
Mean motion
0.4807 °/min
Orbital period
748.91 mins
BSTAR
0.012557
Loading maneuver chart data...
Computing Atmospheric mass density...
Loading historical data...
Loading historical data...
Loading historical data...
Loading historical data...
Loading historical data...
Loading historical data...
Loading historical data...

Documentation

Showing up to 5 results
|